Hourly Data Report for July 13, 2021

PRINCE RUPERT
BRITISH COLUMBIA
Current Station Operator: NAVCAN

54°17'10.000" N
130°26'41.000" W
35.40 m
1066482
71022
YPR

Download Data

Hourly Data (July 2021)
Hourly Data Report for July 13, 2021
TIME
LST
Temp Definition
°C
Dew Point Definition
°C
Rel Hum Definition
%
Precip. Amount Definition
mm

Wind Dir Definition
10's deg

Wind Spd Definition
km/h
Visibility Definition
km
Stn Press Definition
kPa
Hmdx Definition


Wind Chill Definition


Weather Definition


00:00 12.1 10.9 92 0.0   0 16.1 101.61     LegendNANA
01:00 11.4 10.3 93 0.0   0 16.1 101.61     LegendNANA
02:00 11.0 10.2 95 0.0 7 4 16.1 101.59     LegendNANA
03:00 10.7 9.9 95 0.0   0 16.1 101.54     LegendNANA
04:00 10.8 10.2 96 0.0 10 5 16.1 101.54     LegendNANA
05:00 11.2 10.6 96 0.0   0 16.1 101.55     LegendNANA
06:00 12.3 11.5 95 0.0   0 16.1 101.55     LegendNANA
07:00 13.2 11.9 92 0.0   0 16.1 101.56     LegendNANA
08:00 15.3 12.0 80 0.0 LegendMM 5 16.1 101.56     LegendNANA
09:00 14.6 11.5 81 0.0 21 9 16.1 101.57     LegendNANA
10:00 15.1 11.6 79 0.0 LegendMM 4 16.1 101.55     LegendNANA
11:00 16.3 11.9 75 0.0 27 5 16.1 101.55     LegendNANA
12:00 16.0 12.4 79 0.0 27 11 16.1 101.58     LegendNANA
13:00 15.8 12.3 79 0.0 27 11 16.1 101.59     LegendNANA
14:00 15.2 13.1 87 0.0 29 8 16.1 101.61     LegendNANA
15:00 13.9 12.0 88 0.0 28 11 16.1 101.60     LegendNANA
16:00 13.8 11.4 85 0.0 29 9 16.1 101.61     LegendNANA
17:00 13.8 11.4 85 0.0 29 9 16.1 101.61     LegendNANA
18:00 13.4 10.4 82 0.0 30 8 16.1 101.60     LegendNANA
19:00 12.6 10.0 84 0.0 30 11 16.1 101.60     LegendNANA
20:00 11.9 10.5 91 0.0 30 5 16.1 101.58     LegendNANA
21:00 11.5 10.1 91 0.0 30 8 4.8 101.60     Rain, Fog
22:00 12.2 9.6 84 0.0 36 5 16.1 101.60     LegendNANA
23:00 11.9 8.8 81 0.0 34 5 16.1 101.62     LegendNANA

Notes on Data Quality.

Legend

  • E = Estimated
  • M = Missing
  • NA = Not Available*
  • [empty] = Indicates an unobserved value
Date modified: